owner,sensor,date,latitude,longitude,sea_water_turbidity,qcFlag 
SCCF RECON,ioos:station:SCCF:11:1,2019-04-01T04:00:00Z,26.4679,-82.0631,1.89,1111122 
SCCF RECON,ioos:station:SCCF:11:1,2019-04-01T05:00:00Z,26.4679,-82.0631,1.98,1111122 
SCCF RECON,ioos:station:SCCF:11:1,2019-04-01T06:00:00Z,26.4679,-82.0631,1.96,1111122 
SCCF RECON,ioos:station:SCCF:11:1,2019-04-01T07:00:00Z,26.4679,-82.0631,2.22,1111122 
SCCF RECON,ioos:station:SCCF:11:1,2019-04-01T08:00:00Z,26.4679,-82.0631,2.32,1111122 
SCCF RECON,ioos:station:SCCF:11:1,2019-04-01T09:00:00Z,26.4679,-82.0631,2.36,1111122 
SCCF RECON,ioos:station:SCCF:11:1,2019-04-01T10:00:00Z,26.4679,-82.0631,2.37,1111122 
SCCF RECON,ioos:station:SCCF:11:1,2019-04-01T11:00:00Z,26.4679,-82.0631,2.39,1111122 
SCCF RECON,ioos:station:SCCF:11:1,2019-04-01T12:00:00Z,26.4679,-82.0631,2.15,1111122 
SCCF RECON,ioos:station:SCCF:11:1,2019-04-01T13:00:00Z,26.4679,-82.0631,2.53,1111122 
SCCF RECON,ioos:station:SCCF:11:1,2019-04-01T14:00:00Z,26.4679,-82.0631,2.47,1111122 
SCCF RECON,ioos:station:SCCF:11:1,2019-04-01T15:00:00Z,26.4679,-82.0631,2.61,1111122 
SCCF RECON,ioos:station:SCCF:11:1,2019-04-01T16:00:00Z,26.4679,-82.0631,3.05,1111122 
SCCF RECON,ioos:station:SCCF:11:1,2019-04-01T17:00:00Z,26.4679,-82.0631,2.74,1111122 
SCCF RECON,ioos:station:SCCF:11:1,2019-04-01T18:00:00Z,26.4679,-82.0631,2.56,1111122 
SCCF RECON,ioos:station:SCCF:11:1,2019-04-01T19:00:00Z,26.4679,-82.0631,2.17,1111122 
SCCF RECON,ioos:station:SCCF:11:1,2019-04-01T20:00:00Z,26.4679,-82.0631,2.19,1111122 
SCCF RECON,ioos:station:SCCF:11:1,2019-04-01T21:00:00Z,26.4679,-82.0631,2.3,1111122 
SCCF RECON,ioos:station:SCCF:11:1,2019-04-01T22:00:00Z,26.4679,-82.0631,2.31,1111122 
SCCF RECON,ioos:station:SCCF:11:1,2019-04-01T23:00:00Z,26.4679,-82.0631,2.43,1111122 
SCCF RECON,ioos:station:SCCF:11:1,2019-04-02T04:00:00Z,26.4679,-82.0631,2.35,1111122 
SCCF RECON,ioos:station:SCCF:11:1,2019-04-02T05:00:00Z,26.4679,-82.0631,2.15,1111122 
SCCF RECON,ioos:station:SCCF:11:1,2019-04-02T06:00:00Z,26.4679,-82.0631,2.34,1111122 
SCCF RECON,ioos:station:SCCF:11:1,2019-04-02T07:00:00Z,26.4679,-82.0631,1.98,1111122 
SCCF RECON,ioos:station:SCCF:11:1,2019-04-02T08:00:00Z,26.4679,-82.0631,2.25,1111122 
SCCF RECON,ioos:station:SCCF:11:1,2019-04-02T09:00:00Z,26.4679,-82.0631,2.4,1111122 
SCCF RECON,ioos:station:SCCF:11:1,2019-04-02T10:00:00Z,26.4679,-82.0631,2.31,1111122 
SCCF RECON,ioos:station:SCCF:11:1,2019-04-02T11:00:00Z,26.4679,-82.0631,2.31,1111122 
SCCF RECON,ioos:station:SCCF:11:1,2019-04-02T12:00:00Z,26.4679,-82.0631,2.2,1111122 
SCCF RECON,ioos:station:SCCF:11:1,2019-04-02T13:00:00Z,26.4679,-82.0631,2.68,1111122 
SCCF RECON,ioos:station:SCCF:11:1,2019-04-02T14:00:00Z,26.4679,-82.0631,2.67,1111122 
SCCF RECON,ioos:station:SCCF:11:1,2019-04-02T16:00:00Z,26.4679,-82.0631,3.0,1111122 
SCCF RECON,ioos:station:SCCF:11:1,2019-04-02T17:00:00Z,26.4679,-82.0631,2.65,1111122 
SCCF RECON,ioos:station:SCCF:11:1,2019-04-02T18:00:00Z,26.4679,-82.0631,2.78,1111122 
SCCF RECON,ioos:station:SCCF:11:1,2019-04-02T19:00:00Z,26.4679,-82.0631,2.24,1111122 
SCCF RECON,ioos:station:SCCF:11:1,2019-04-02T20:00:00Z,26.4679,-82.0631,2.11,1111122 
SCCF RECON,ioos:station:SCCF:11:1,2019-04-02T21:00:00Z,26.4679,-82.0631,2.15,1111122 
SCCF RECON,ioos:station:SCCF:11:1,2019-04-02T22:00:00Z,26.4679,-82.0631,2.23,1111122 
SCCF RECON,ioos:station:SCCF:11:1,2019-04-02T23:00:00Z,26.4679,-82.0631,2.23,1111122 
SCCF RECON,ioos:station:SCCF:11:1,2019-04-03T04:00:00Z,26.4679,-82.0631,2.27,1111122 
SCCF RECON,ioos:station:SCCF:11:1,2019-04-03T05:00:00Z,26.4679,-82.0631,2.47,1111122 
SCCF RECON,ioos:station:SCCF:11:1,2019-04-03T06:00:00Z,26.4679,-82.0631,2.37,1111122 
SCCF RECON,ioos:station:SCCF:11:1,2019-04-03T07:00:00Z,26.4679,-82.0631,2.33,1111122 
SCCF RECON,ioos:station:SCCF:11:1,2019-04-03T08:00:00Z,26.4679,-82.0631,2.49,1111122 
SCCF RECON,ioos:station:SCCF:11:1,2019-04-03T09:00:00Z,26.4679,-82.0631,2.45,1111122 
SCCF RECON,ioos:station:SCCF:11:1,2019-04-03T10:00:00Z,26.4679,-82.0631,2.55,1111122 
SCCF RECON,ioos:station:SCCF:11:1,2019-04-03T11:00:00Z,26.4679,-82.0631,2.71,1111122 
SCCF RECON,ioos:station:SCCF:11:1,2019-04-03T12:00:00Z,26.4679,-82.0631,2.61,1111122 
SCCF RECON,ioos:station:SCCF:11:1,2019-04-03T13:00:00Z,26.4679,-82.0631,6.84,1111122 
SCCF RECON,ioos:station:SCCF:11:1,2019-04-03T14:00:00Z,26.4679,-82.0631,12.87,1111122 
SCCF RECON,ioos:station:SCCF:11:1,2019-04-03T15:00:00Z,26.4679,-82.0631,11.08,1111122 
SCCF RECON,ioos:station:SCCF:11:1,2019-04-03T16:00:00Z,26.4679,-82.0631,7.29,1111122 
SCCF RECON,ioos:station:SCCF:11:1,2019-04-03T17:00:00Z,26.4679,-82.0631,7.21,1111122 
SCCF RECON,ioos:station:SCCF:11:1,2019-04-03T18:00:00Z,26.4679,-82.0631,4.99,1111122 
SCCF RECON,ioos:station:SCCF:11:1,2019-04-03T19:00:00Z,26.4679,-82.0631,4.23,1111122 
SCCF RECON,ioos:station:SCCF:11:1,2019-04-03T20:00:00Z,26.4679,-82.0631,2.93,1111122 
SCCF RECON,ioos:station:SCCF:11:1,2019-04-03T21:00:00Z,26.4679,-82.0631,2.79,1111122 
SCCF RECON,ioos:station:SCCF:11:1,2019-04-03T22:00:00Z,26.4679,-82.0631,2.77,1111122 
SCCF RECON,ioos:station:SCCF:11:1,2019-04-03T23:00:00Z,26.4679,-82.0631,4.05,1111122 
SCCF RECON,ioos:station:SCCF:11:1,2019-04-04T04:00:00Z,26.4679,-82.0631,16.59,1111122 
SCCF RECON,ioos:station:SCCF:11:1,2019-04-04T05:00:00Z,26.4679,-82.0631,29.89,1111122 
SCCF RECON,ioos:station:SCCF:11:1,2019-04-04T06:00:00Z,26.4679,-82.0631,11.41,1111122 
SCCF RECON,ioos:station:SCCF:11:1,2019-04-04T07:00:00Z,26.4679,-82.0631,3.17,1111122 
SCCF RECON,ioos:station:SCCF:11:1,2019-04-04T08:00:00Z,26.4679,-82.0631,2.87,1111122 
SCCF RECON,ioos:station:SCCF:11:1,2019-04-04T09:00:00Z,26.4679,-82.0631,2.64,1111122 
SCCF RECON,ioos:station:SCCF:11:1,2019-04-04T10:00:00Z,26.4679,-82.0631,2.65,1111122 
SCCF RECON,ioos:station:SCCF:11:1,2019-04-04T11:00:00Z,26.4679,-82.0631,2.56,1111122 
SCCF RECON,ioos:station:SCCF:11:1,2019-04-04T12:00:00Z,26.4679,-82.0631,2.78,1111122 
SCCF RECON,ioos:station:SCCF:11:1,2019-04-04T13:00:00Z,26.4679,-82.0631,7.32,1111122 
SCCF RECON,ioos:station:SCCF:11:1,2019-04-04T14:00:00Z,26.4679,-82.0631,8.6,1111122 
SCCF RECON,ioos:station:SCCF:11:1,2019-04-04T15:00:00Z,26.4679,-82.0631,8.71,1111122 
SCCF RECON,ioos:station:SCCF:11:1,2019-04-04T16:00:00Z,26.4679,-82.0631,8.4,1111122 
SCCF RECON,ioos:station:SCCF:11:1,2019-04-04T17:00:00Z,26.4679,-82.0631,7.57,1111122 
SCCF RECON,ioos:station:SCCF:11:1,2019-04-04T18:00:00Z,26.4679,-82.0631,8.17,1111122 
SCCF RECON,ioos:station:SCCF:11:1,2019-04-04T19:00:00Z,26.4679,-82.0631,4.43,1111122 
SCCF RECON,ioos:station:SCCF:11:1,2019-04-04T20:00:00Z,26.4679,-82.0631,3.36,1111122 
SCCF RECON,ioos:station:SCCF:11:1,2019-04-04T21:00:00Z,26.4679,-82.0631,2.75,1111122 
SCCF RECON,ioos:station:SCCF:11:1,2019-04-04T22:00:00Z,26.4679,-82.0631,2.73,1111122 
SCCF RECON,ioos:station:SCCF:11:1,2019-04-04T23:00:00Z,26.4679,-82.0631,2.69,1111122 
SCCF RECON,ioos:station:SCCF:11:1,2019-04-05T04:00:00Z,26.4679,-82.0631,8.16,1111122 
SCCF RECON,ioos:station:SCCF:11:1,2019-04-05T05:00:00Z,26.4679,-82.0631,7.53,1111122 
SCCF RECON,ioos:station:SCCF:11:1,2019-04-05T06:00:00Z,26.4679,-82.0631,6.3,1111122 
SCCF RECON,ioos:station:SCCF:11:1,2019-04-05T07:00:00Z,26.4679,-82.0631,3.67,1111122 
SCCF RECON,ioos:station:SCCF:11:1,2019-04-05T08:00:00Z,26.4679,-82.0631,2.67,1111122 
SCCF RECON,ioos:station:SCCF:11:1,2019-04-05T09:00:00Z,26.4679,-82.0631,2.76,1111122 
SCCF RECON,ioos:station:SCCF:11:1,2019-04-05T10:00:00Z,26.4679,-82.0631,2.69,1111122 
SCCF RECON,ioos:station:SCCF:11:1,2019-04-05T11:00:00Z,26.4679,-82.0631,2.55,1111122 
SCCF RECON,ioos:station:SCCF:11:1,2019-04-05T12:00:00Z,26.4679,-82.0631,2.5,1111122 
SCCF RECON,ioos:station:SCCF:11:1,2019-04-05T13:00:00Z,26.4679,-82.0631,7.19,1111122 
SCCF RECON,ioos:station:SCCF:11:1,2019-04-05T14:00:00Z,26.4679,-82.0631,7.11,1111122 
SCCF RECON,ioos:station:SCCF:11:1,2019-04-05T15:00:00Z,26.4679,-82.0631,21.27,1111122 
SCCF RECON,ioos:station:SCCF:11:1,2019-04-05T16:00:00Z,26.4679,-82.0631,8.2,1111122 
SCCF RECON,ioos:station:SCCF:11:1,2019-04-05T17:00:00Z,26.4679,-82.0631,9.35,1111122 
SCCF RECON,ioos:station:SCCF:11:1,2019-04-05T18:00:00Z,26.4679,-82.0631,5.76,1111122 
SCCF RECON,ioos:station:SCCF:11:1,2019-04-05T19:00:00Z,26.4679,-82.0631,4.45,1111122 
SCCF RECON,ioos:station:SCCF:11:1,2019-04-05T20:00:00Z,26.4679,-82.0631,3.61,1111122 
SCCF RECON,ioos:station:SCCF:11:1,2019-04-05T21:00:00Z,26.4679,-82.0631,2.42,1111122 
SCCF RECON,ioos:station:SCCF:11:1,2019-04-05T22:00:00Z,26.4679,-82.0631,2.55,1111122 
SCCF RECON,ioos:station:SCCF:11:1,2019-04-05T23:00:00Z,26.4679,-82.0631,2.61,1111122 
SCCF RECON,ioos:station:SCCF:11:1,2019-04-06T04:00:00Z,26.4679,-82.0631,8.02,1111122 
SCCF RECON,ioos:station:SCCF:11:1,2019-04-06T05:00:00Z,26.4679,-82.0631,8.66,1111122 
SCCF RECON,ioos:station:SCCF:11:1,2019-04-06T06:00:00Z,26.4679,-82.0631,8.29,1111122 
SCCF RECON,ioos:station:SCCF:11:1,2019-04-06T07:00:00Z,26.4679,-82.0631,6.32,1111122 
SCCF RECON,ioos:station:SCCF:11:1,2019-04-06T08:00:00Z,26.4679,-82.0631,3.33,1111122 
SCCF RECON,ioos:station:SCCF:11:1,2019-04-06T09:00:00Z,26.4679,-82.0631,2.42,1111122 
SCCF RECON,ioos:station:SCCF:11:1,2019-04-06T10:00:00Z,26.4679,-82.0631,2.58,1111122 
SCCF RECON,ioos:station:SCCF:11:1,2019-04-06T11:00:00Z,26.4679,-82.0631,2.43,1111122 
SCCF RECON,ioos:station:SCCF:11:1,2019-04-06T12:00:00Z,26.4679,-82.0631,2.45,1111122 
SCCF RECON,ioos:station:SCCF:11:1,2019-04-06T13:00:00Z,26.4679,-82.0631,2.42,1111122 
SCCF RECON,ioos:station:SCCF:11:1,2019-04-06T14:00:00Z,26.4679,-82.0631,3.33,1111122 
SCCF RECON,ioos:station:SCCF:11:1,2019-04-06T15:00:00Z,26.4679,-82.0631,8.62,1111122 
SCCF RECON,ioos:station:SCCF:11:1,2019-04-06T16:00:00Z,26.4679,-82.0631,72.37,1111122 
SCCF RECON,ioos:station:SCCF:11:1,2019-04-06T17:00:00Z,26.4679,-82.0631,133.73,1111122 
SCCF RECON,ioos:station:SCCF:11:1,2019-04-06T18:00:00Z,26.4679,-82.0631,101.19,1111122 
SCCF RECON,ioos:station:SCCF:11:1,2019-04-06T19:00:00Z,26.4679,-82.0631,27.46,1111122 
SCCF RECON,ioos:station:SCCF:11:1,2019-04-06T20:00:00Z,26.4679,-82.0631,3.36,1111122 
SCCF RECON,ioos:station:SCCF:11:1,2019-04-06T21:00:00Z,26.4679,-82.0631,2.45,1111122 
SCCF RECON,ioos:station:SCCF:11:1,2019-04-06T22:00:00Z,26.4679,-82.0631,2.45,1111122 
SCCF RECON,ioos:station:SCCF:11:1,2019-04-06T23:00:00Z,26.4679,-82.0631,2.67,1111122 
SCCF RECON,ioos:station:SCCF:11:1,2019-04-07T04:00:00Z,26.4679,-82.0631,8.0,1111122 
SCCF RECON,ioos:station:SCCF:11:1,2019-04-07T05:00:00Z,26.4679,-82.0631,9.46,1111122 
SCCF RECON,ioos:station:SCCF:11:1,2019-04-07T06:00:00Z,26.4679,-82.0631,10.03,1111122 
SCCF RECON,ioos:station:SCCF:11:1,2019-04-07T07:00:00Z,26.4679,-82.0631,22.46,1111122 
SCCF RECON,ioos:station:SCCF:11:1,2019-04-07T08:00:00Z,26.4679,-82.0631,72.32,1111122 
SCCF RECON,ioos:station:SCCF:11:1,2019-04-07T09:00:00Z,26.4679,-82.0631,12.77,1111122 
SCCF RECON,ioos:station:SCCF:11:1,2019-04-07T10:00:00Z,26.4679,-82.0631,5.04,1111122 
SCCF RECON,ioos:station:SCCF:11:1,2019-04-07T11:00:00Z,26.4679,-82.0631,3.73,1111122 
SCCF RECON,ioos:station:SCCF:11:1,2019-04-07T12:00:00Z,26.4679,-82.0631,3.66,1111122 
SCCF RECON,ioos:station:SCCF:11:1,2019-04-07T13:00:00Z,26.4679,-82.0631,3.44,1111122 
SCCF RECON,ioos:station:SCCF:11:1,2019-04-07T14:00:00Z,26.4679,-82.0631,10.8,1111122 
SCCF RECON,ioos:station:SCCF:11:1,2019-04-07T15:00:00Z,26.4679,-82.0631,11.98,1111122 
SCCF RECON,ioos:station:SCCF:11:1,2019-04-07T16:00:00Z,26.4679,-82.0631,91.94,1111122 
SCCF RECON,ioos:station:SCCF:11:1,2019-04-07T17:00:00Z,26.4679,-82.0631,122.78,1111122 
SCCF RECON,ioos:station:SCCF:11:1,2019-04-07T18:00:00Z,26.4679,-82.0631,99.76,1111122 
SCCF RECON,ioos:station:SCCF:11:1,2019-04-07T19:00:00Z,26.4679,-82.0631,75.53,1111122 
SCCF RECON,ioos:station:SCCF:11:1,2019-04-07T20:00:00Z,26.4679,-82.0631,125.54,1111122 
SCCF RECON,ioos:station:SCCF:11:1,2019-04-07T21:00:00Z,26.4679,-82.0631,113.06,1111122 
SCCF RECON,ioos:station:SCCF:11:1,2019-04-07T22:00:00Z,26.4679,-82.0631,17.92,1111122 
SCCF RECON,ioos:station:SCCF:11:1,2019-04-07T23:00:00Z,26.4679,-82.0631,5.82,1111122 
SCCF RECON,ioos:station:SCCF:11:1,2019-04-08T04:00:00Z,26.4679,-82.0631,32.32,1111122 
SCCF RECON,ioos:station:SCCF:11:1,2019-04-08T05:00:00Z,26.4679,-82.0631,29.56,1111122 
SCCF RECON,ioos:station:SCCF:11:1,2019-04-08T06:00:00Z,26.4679,-82.0631,41.12,1111122 
SCCF RECON,ioos:station:SCCF:11:1,2019-04-08T07:00:00Z,26.4679,-82.0631,96.16,1111122 
SCCF RECON,ioos:station:SCCF:11:1,2019-04-08T08:00:00Z,26.4679,-82.0631,19.55,1111122 
SCCF RECON,ioos:station:SCCF:11:1,2019-04-08T09:00:00Z,26.4679,-82.0631,16.28,1111122 
SCCF RECON,ioos:station:SCCF:11:1,2019-04-08T10:00:00Z,26.4679,-82.0631,15.21,1111122 
SCCF RECON,ioos:station:SCCF:11:1,2019-04-08T11:00:00Z,26.4679,-82.0631,14.85,1111122 
SCCF RECON,ioos:station:SCCF:11:1,2019-04-08T12:00:00Z,26.4679,-82.0631,4.72,1111122 
SCCF RECON,ioos:station:SCCF:11:1,2019-04-08T13:00:00Z,26.4679,-82.0631,5.92,1111122 
SCCF RECON,ioos:station:SCCF:11:1,2019-04-08T14:00:00Z,26.4679,-82.0631,19.78,1111122 
SCCF RECON,ioos:station:SCCF:11:1,2019-04-08T15:00:00Z,26.4679,-82.0631,12.24,1111122 
SCCF RECON,ioos:station:SCCF:11:1,2019-04-08T16:00:00Z,26.4679,-82.0631,26.56,1111122 
SCCF RECON,ioos:station:SCCF:11:1,2019-04-08T17:00:00Z,26.4679,-82.0631,38.14,1111122 
SCCF RECON,ioos:station:SCCF:11:1,2019-04-08T18:00:00Z,26.4679,-82.0631,122.8,1111122 
SCCF RECON,ioos:station:SCCF:11:1,2019-04-08T19:00:00Z,26.4679,-82.0631,92.02,1111122 
SCCF RECON,ioos:station:SCCF:11:1,2019-04-08T20:00:00Z,26.4679,-82.0631,163.84,1111122 
SCCF RECON,ioos:station:SCCF:11:1,2019-04-08T21:00:00Z,26.4679,-82.0631,197.61,1111122 
SCCF RECON,ioos:station:SCCF:11:1,2019-04-08T22:00:00Z,26.4679,-82.0631,62.42,1111122 
SCCF RECON,ioos:station:SCCF:11:1,2019-04-08T23:00:00Z,26.4679,-82.0631,19.58,1111122 
SCCF RECON,ioos:station:SCCF:11:1,2019-04-09T04:00:00Z,26.4679,-82.0631,27.79,1111122 
SCCF RECON,ioos:station:SCCF:11:1,2019-04-09T05:00:00Z,26.4679,-82.0631,61.74,1111122 
SCCF RECON,ioos:station:SCCF:11:1,2019-04-09T06:00:00Z,26.4679,-82.0631,79.5,1111122 
SCCF RECON,ioos:station:SCCF:11:1,2019-04-09T07:00:00Z,26.4679,-82.0631,81.04,1111122 
SCCF RECON,ioos:station:SCCF:11:1,2019-04-09T08:00:00Z,26.4679,-82.0631,56.43,1111122 
SCCF RECON,ioos:station:SCCF:11:1,2019-04-09T09:00:00Z,26.4679,-82.0631,41.05,1111122 
SCCF RECON,ioos:station:SCCF:11:1,2019-04-09T10:00:00Z,26.4679,-82.0631,26.44,1111122 
SCCF RECON,ioos:station:SCCF:11:1,2019-04-09T11:00:00Z,26.4679,-82.0631,26.92,1111122 
SCCF RECON,ioos:station:SCCF:11:1,2019-04-09T12:00:00Z,26.4679,-82.0631,27.09,1111122 
SCCF RECON,ioos:station:SCCF:11:1,2019-04-09T13:00:00Z,26.4679,-82.0631,67.2,1111122 
SCCF RECON,ioos:station:SCCF:11:1,2019-04-09T14:00:00Z,26.4679,-82.0631,48.44,1111122 
SCCF RECON,ioos:station:SCCF:11:1,2019-04-09T15:00:00Z,26.4679,-82.0631,74.71,1111122 
SCCF RECON,ioos:station:SCCF:11:1,2019-04-09T16:00:00Z,26.4679,-82.0631,33.39,1111122 
SCCF RECON,ioos:station:SCCF:11:1,2019-04-09T17:00:00Z,26.4679,-82.0631,104.78,1111122 
SCCF RECON,ioos:station:SCCF:11:1,2019-04-09T18:00:00Z,26.4679,-82.0631,80.72,1111122 
SCCF RECON,ioos:station:SCCF:11:1,2019-04-09T19:00:00Z,26.4679,-82.0631,74.87,1111122 
SCCF RECON,ioos:station:SCCF:11:1,2019-04-09T20:00:00Z,26.4679,-82.0631,76.73,1111122 
SCCF RECON,ioos:station:SCCF:11:1,2019-04-09T21:00:00Z,26.4679,-82.0631,71.04,1111122 
SCCF RECON,ioos:station:SCCF:11:1,2019-04-09T22:00:00Z,26.4679,-82.0631,87.95,1111122 
SCCF RECON,ioos:station:SCCF:11:1,2019-04-09T23:00:00Z,26.4679,-82.0631,22.24,1111122 
SCCF RECON,ioos:station:SCCF:11:1,2019-04-10T04:00:00Z,26.4679,-82.0631,3.9,1111122 
SCCF RECON,ioos:station:SCCF:11:1,2019-04-10T05:00:00Z,26.4679,-82.0631,57.11,1111122 
SCCF RECON,ioos:station:SCCF:11:1,2019-04-10T06:00:00Z,26.4679,-82.0631,53.14,1111122 
SCCF RECON,ioos:station:SCCF:11:1,2019-04-10T07:00:00Z,26.4679,-82.0631,50.77,1111122 
SCCF RECON,ioos:station:SCCF:11:1,2019-04-10T08:00:00Z,26.4679,-82.0631,42.84,1111122 
SCCF RECON,ioos:station:SCCF:11:1,2019-04-10T09:00:00Z,26.4679,-82.0631,52.85,1111122 
SCCF RECON,ioos:station:SCCF:11:1,2019-04-10T10:00:00Z,26.4679,-82.0631,40.12,1111122 
SCCF RECON,ioos:station:SCCF:11:1,2019-04-10T11:00:00Z,26.4679,-82.0631,35.81,1111122 
SCCF RECON,ioos:station:SCCF:11:1,2019-04-10T12:00:00Z,26.4679,-82.0631,12.54,1111122 
SCCF RECON,ioos:station:SCCF:11:1,2019-04-10T13:00:00Z,26.4679,-82.0631,8.74,1111122 
SCCF RECON,ioos:station:SCCF:11:1,2019-04-10T14:00:00Z,26.4679,-82.0631,10.39,1111122 
SCCF RECON,ioos:station:SCCF:11:1,2019-04-10T15:00:00Z,26.4679,-82.0631,13.63,1111122 
SCCF RECON,ioos:station:SCCF:11:1,2019-04-10T16:00:00Z,26.4679,-82.0631,25.82,1111122 
SCCF RECON,ioos:station:SCCF:11:1,2019-04-10T17:00:00Z,26.4679,-82.0631,57.16,1111122 
SCCF RECON,ioos:station:SCCF:11:1,2019-04-10T18:00:00Z,26.4679,-82.0631,49.99,1111122 
SCCF RECON,ioos:station:SCCF:11:1,2019-04-10T19:00:00Z,26.4679,-82.0631,97.88,1111122 
SCCF RECON,ioos:station:SCCF:11:1,2019-04-10T20:00:00Z,26.4679,-82.0631,113.97,1111122 
SCCF RECON,ioos:station:SCCF:11:1,2019-04-10T21:00:00Z,26.4679,-82.0631,42.48,1111122 
SCCF RECON,ioos:station:SCCF:11:1,2019-04-10T22:00:00Z,26.4679,-82.0631,15.79,1111122 
SCCF RECON,ioos:station:SCCF:11:1,2019-04-10T23:00:00Z,26.4679,-82.0631,8.28,1111122 
SCCF RECON,ioos:station:SCCF:11:1,2019-04-11T04:00:00Z,26.4679,-82.0631,3.64,1111122 
SCCF RECON,ioos:station:SCCF:11:1,2019-04-11T05:00:00Z,26.4679,-82.0631,4.32,1111122 
SCCF RECON,ioos:station:SCCF:11:1,2019-04-11T06:00:00Z,26.4679,-82.0631,33.32,1111122 
SCCF RECON,ioos:station:SCCF:11:1,2019-04-11T07:00:00Z,26.4679,-82.0631,39.52,1111122 
SCCF RECON,ioos:station:SCCF:11:1,2019-04-11T08:00:00Z,26.4679,-82.0631,28.56,1111122 
SCCF RECON,ioos:station:SCCF:11:1,2019-04-11T09:00:00Z,26.4679,-82.0631,16.96,1111122 
SCCF RECON,ioos:station:SCCF:11:1,2019-04-11T10:00:00Z,26.4679,-82.0631,15.97,1111122 
SCCF RECON,ioos:station:SCCF:11:1,2019-04-11T11:00:00Z,26.4679,-82.0631,10.36,1111122 
SCCF RECON,ioos:station:SCCF:11:1,2019-04-11T12:00:00Z,26.4679,-82.0631,9.61,1111122 
SCCF RECON,ioos:station:SCCF:11:1,2019-04-11T13:00:00Z,26.4679,-82.0631,8.65,1111122 
SCCF RECON,ioos:station:SCCF:11:1,2019-04-11T14:00:00Z,26.4679,-82.0631,7.91,1111122 
SCCF RECON,ioos:station:SCCF:11:1,2019-04-11T15:00:00Z,26.4679,-82.0631,7.92,1111122 
SCCF RECON,ioos:station:SCCF:11:1,2019-04-11T16:00:00Z,26.4679,-82.0631,7.91,1111122 
SCCF RECON,ioos:station:SCCF:11:1,2019-04-11T17:00:00Z,26.4679,-82.0631,9.51,1111122 
SCCF RECON,ioos:station:SCCF:11:1,2019-04-11T18:00:00Z,26.4679,-82.0631,9.75,1111122 
SCCF RECON,ioos:station:SCCF:11:1,2019-04-11T19:00:00Z,26.4679,-82.0631,13.74,1111122 
SCCF RECON,ioos:station:SCCF:11:1,2019-04-11T20:00:00Z,26.4679,-82.0631,13.39,1111122 
SCCF RECON,ioos:station:SCCF:11:1,2019-04-11T21:00:00Z,26.4679,-82.0631,13.11,1111122 
SCCF RECON,ioos:station:SCCF:11:1,2019-04-11T22:00:00Z,26.4679,-82.0631,9.59,1111122 
SCCF RECON,ioos:station:SCCF:11:1,2019-04-11T23:00:00Z,26.4679,-82.0631,13.84,1111122 
SCCF RECON,ioos:station:SCCF:11:1,2019-04-12T04:00:00Z,26.4679,-82.0631,11.69,1111122 
SCCF RECON,ioos:station:SCCF:11:1,2019-04-12T05:00:00Z,26.4679,-82.0631,8.25,1111122 
SCCF RECON,ioos:station:SCCF:11:1,2019-04-12T06:00:00Z,26.4679,-82.0631,7.47,1111122 
SCCF RECON,ioos:station:SCCF:11:1,2019-04-12T07:00:00Z,26.4679,-82.0631,7.53,1111122 
SCCF RECON,ioos:station:SCCF:11:1,2019-04-12T08:00:00Z,26.4679,-82.0631,11.94,1111122 
SCCF RECON,ioos:station:SCCF:11:1,2019-04-12T09:00:00Z,26.4679,-82.0631,6.25,1111122 
SCCF RECON,ioos:station:SCCF:11:1,2019-04-12T10:00:00Z,26.4679,-82.0631,11.94,1111122 
SCCF RECON,ioos:station:SCCF:11:1,2019-04-12T11:00:00Z,26.4679,-82.0631,10.13,1111122 
SCCF RECON,ioos:station:SCCF:11:1,2019-04-12T12:00:00Z,26.4679,-82.0631,9.19,1111122 
SCCF RECON,ioos:station:SCCF:11:1,2019-04-12T13:00:00Z,26.4679,-82.0631,5.99,1111122 
SCCF RECON,ioos:station:SCCF:11:1,2019-04-12T14:00:00Z,26.4679,-82.0631,5.63,1111122 
SCCF RECON,ioos:station:SCCF:11:1,2019-04-12T15:00:00Z,26.4679,-82.0631,5.33,1111122 
SCCF RECON,ioos:station:SCCF:11:1,2019-04-12T16:00:00Z,26.4679,-82.0631,5.9,1111122 
SCCF RECON,ioos:station:SCCF:11:1,2019-04-12T17:00:00Z,26.4679,-82.0631,5.68,1111122 
SCCF RECON,ioos:station:SCCF:11:1,2019-04-12T18:00:00Z,26.4679,-82.0631,6.4,1111122 
SCCF RECON,ioos:station:SCCF:11:1,2019-04-12T19:00:00Z,26.4679,-82.0631,6.83,1111122 
SCCF RECON,ioos:station:SCCF:11:1,2019-04-12T20:00:00Z,26.4679,-82.0631,7.62,1111122 
SCCF RECON,ioos:station:SCCF:11:1,2019-04-12T21:00:00Z,26.4679,-82.0631,8.94,1111122 
SCCF RECON,ioos:station:SCCF:11:1,2019-04-12T22:00:00Z,26.4679,-82.0631,7.52,1111122 
SCCF RECON,ioos:station:SCCF:11:1,2019-04-12T23:00:00Z,26.4679,-82.0631,16.3,1111122 
SCCF RECON,ioos:station:SCCF:11:1,2019-04-13T04:00:00Z,26.4679,-82.0631,25.35,1111122 
SCCF RECON,ioos:station:SCCF:11:1,2019-04-13T05:00:00Z,26.4679,-82.0631,21.22,1111122 
SCCF RECON,ioos:station:SCCF:11:1,2019-04-13T06:00:00Z,26.4679,-82.0631,25.18,1111122 
SCCF RECON,ioos:station:SCCF:11:1,2019-04-13T07:00:00Z,26.4679,-82.0631,36.53,1111122 
SCCF RECON,ioos:station:SCCF:11:1,2019-04-13T08:00:00Z,26.4679,-82.0631,36.82,1111122 
SCCF RECON,ioos:station:SCCF:11:1,2019-04-13T09:00:00Z,26.4679,-82.0631,27.73,1111122 
SCCF RECON,ioos:station:SCCF:11:1,2019-04-13T10:00:00Z,26.4679,-82.0631,24.25,1111122 
SCCF RECON,ioos:station:SCCF:11:1,2019-04-13T11:00:00Z,26.4679,-82.0631,29.57,1111122 
SCCF RECON,ioos:station:SCCF:11:1,2019-04-13T12:00:00Z,26.4679,-82.0631,29.15,1111122 
SCCF RECON,ioos:station:SCCF:11:1,2019-04-13T13:00:00Z,26.4679,-82.0631,25.47,1111122 
SCCF RECON,ioos:station:SCCF:11:1,2019-04-13T14:00:00Z,26.4679,-82.0631,23.29,1111122 
SCCF RECON,ioos:station:SCCF:11:1,2019-04-13T15:00:00Z,26.4679,-82.0631,21.33,1111122 
SCCF RECON,ioos:station:SCCF:11:1,2019-04-13T16:00:00Z,26.4679,-82.0631,12.33,1111122 
SCCF RECON,ioos:station:SCCF:11:1,2019-04-13T17:00:00Z,26.4679,-82.0631,13.58,1111122 
SCCF RECON,ioos:station:SCCF:11:1,2019-04-13T18:00:00Z,26.4679,-82.0631,18.73,1111122 
SCCF RECON,ioos:station:SCCF:11:1,2019-04-13T19:00:00Z,26.4679,-82.0631,18.28,1111122 
SCCF RECON,ioos:station:SCCF:11:1,2019-04-13T20:00:00Z,26.4679,-82.0631,17.66,1111122 
SCCF RECON,ioos:station:SCCF:11:1,2019-04-13T21:00:00Z,26.4679,-82.0631,17.89,1111122 
SCCF RECON,ioos:station:SCCF:11:1,2019-04-13T22:00:00Z,26.4679,-82.0631,16.84,1111122 
SCCF RECON,ioos:station:SCCF:11:1,2019-04-13T23:00:00Z,26.4679,-82.0631,16.31,1111122 
SCCF RECON,ioos:station:SCCF:11:1,2019-04-14T04:00:00Z,26.4679,-82.0631,12.45,1111122 
SCCF RECON,ioos:station:SCCF:11:1,2019-04-14T05:00:00Z,26.4679,-82.0631,11.97,1111122 
SCCF RECON,ioos:station:SCCF:11:1,2019-04-14T06:00:00Z,26.4679,-82.0631,14.95,1111122 
SCCF RECON,ioos:station:SCCF:11:1,2019-04-14T07:00:00Z,26.4679,-82.0631,18.47,1111122 
SCCF RECON,ioos:station:SCCF:11:1,2019-04-14T08:00:00Z,26.4679,-82.0631,24.79,1111122 
SCCF RECON,ioos:station:SCCF:11:1,2019-04-14T09:00:00Z,26.4679,-82.0631,26.99,1111122 
SCCF RECON,ioos:station:SCCF:11:1,2019-04-14T10:00:00Z,26.4679,-82.0631,26.85,1111122 
SCCF RECON,ioos:station:SCCF:11:1,2019-04-14T11:00:00Z,26.4679,-82.0631,27.01,1111122 
SCCF RECON,ioos:station:SCCF:11:1,2019-04-14T12:00:00Z,26.4679,-82.0631,29.12,1111122 
SCCF RECON,ioos:station:SCCF:11:1,2019-04-14T13:00:00Z,26.4679,-82.0631,29.25,1111122 
SCCF RECON,ioos:station:SCCF:11:1,2019-04-14T14:00:00Z,26.4679,-82.0631,30.75,1111122 
SCCF RECON,ioos:station:SCCF:11:1,2019-04-14T15:00:00Z,26.4679,-82.0631,27.95,1111122 
SCCF RECON,ioos:station:SCCF:11:1,2019-04-14T16:00:00Z,26.4679,-82.0631,7.15,1111122 
SCCF RECON,ioos:station:SCCF:11:1,2019-04-14T17:00:00Z,26.4679,-82.0631,7.92,1111122 
SCCF RECON,ioos:station:SCCF:11:1,2019-04-14T18:00:00Z,26.4679,-82.0631,6.4,1111122 
SCCF RECON,ioos:station:SCCF:11:1,2019-04-14T19:00:00Z,26.4679,-82.0631,5.22,1111122 
SCCF RECON,ioos:station:SCCF:11:1,2019-04-14T20:00:00Z,26.4679,-82.0631,5.13,1111122 